TimeCDT,TemperatureF,Dew PointF,Humidity,Sea Level PressureIn,VisibilityMPH,Wind Direction,Wind SpeedMPH,Gust SpeedMPH,PrecipitationIn,Events,Conditions,WindDirDegrees,DateUTC
12:15 AM,43.3,39.0,85,30.00,10.0,Calm,Calm,-,N/A,,Clear,0,2013-10-02 05:15:00
12:35 AM,42.6,40.3,91,30.01,10.0,Calm,Calm,-,N/A,,Clear,0,2013-10-02 05:35:00
12:55 AM,42.8,39.6,88,30.01,10.0,Calm,Calm,-,N/A,,Clear,0,2013-10-02 05:55:00
1:15 AM,41.7,38.5,88,30.01,10.0,Calm,Calm,-,N/A,,Clear,0,2013-10-02 06:15:00
1:35 AM,40.6,38.5,92,30.02,10.0,Calm,Calm,-,N/A,,Clear,0,2013-10-02 06:35:00
1:55 AM,41.5,38.8,90,30.03,10.0,Calm,Calm,-,N/A,,Clear,0,2013-10-02 06:55:00
2:15 AM,40.3,38.5,93,30.03,10.0,Calm,Calm,-,N/A,,Clear,0,2013-10-02 07:15:00
2:35 AM,40.3,38.8,95,30.03,10.0,Calm,Calm,-,N/A,,Clear,0,2013-10-02 07:35:00
2:55 AM,38.1,36.5,94,30.03,10.0,Calm,Calm,-,N/A,,Clear,0,2013-10-02 07:55:00
3:15 AM,39.2,37.9,95,30.03,10.0,Calm,Calm,-,N/A,,Clear,0,2013-10-02 08:15:00
3:35 AM,40.1,38.8,95,30.04,10.0,Calm,Calm,-,N/A,,Clear,0,2013-10-02 08:35:00
3:55 AM,39.2,37.9,95,30.04,10.0,Calm,Calm,-,N/A,,Clear,0,2013-10-02 08:55:00
4:15 AM,39.2,37.9,95,30.05,10.0,Calm,Calm,-,N/A,,Clear,0,2013-10-02 09:15:00
4:35 AM,39.0,37.8,95,30.06,10.0,Calm,Calm,-,N/A,,Clear,0,2013-10-02 09:35:00
4:55 AM,38.7,37.6,96,30.06,10.0,Calm,Calm,-,N/A,,Clear,0,2013-10-02 09:55:00
5:15 AM,38.1,37.0,96,30.06,7.0,Calm,Calm,-,N/A,,Clear,0,2013-10-02 10:15:00
5:35 AM,36.5,35.4,96,30.06,1.2,Calm,Calm,-,N/A,,Mist,0,2013-10-02 10:35:00
5:55 AM,36.7,35.8,97,30.06,7.0,Calm,Calm,-,N/A,,Clear,0,2013-10-02 10:55:00
6:15 AM,37.2,36.3,97,30.06,10.0,Calm,Calm,-,N/A,,Clear,0,2013-10-02 11:15:00
6:35 AM,36.5,35.8,97,30.07,5.0,Calm,Calm,-,N/A,,Clear,0,2013-10-02 11:35:00
6:55 AM,36.0,35.2,97,30.07,1.0,Calm,Calm,-,N/A,,Mist,0,2013-10-02 11:55:00
7:15 AM,35.8,35.1,97,30.08,5.0,Calm,Calm,-,N/A,,Clear,0,2013-10-02 12:15:00
7:35 AM,36.5,35.8,97,30.08,10.0,Calm,Calm,-,N/A,,Clear,0,2013-10-02 12:35:00
7:55 AM,37.4,36.5,97,30.08,10.0,Calm,Calm,-,N/A,,Clear,0,2013-10-02 12:55:00
8:15 AM,39.4,38.5,97,30.09,10.0,Calm,Calm,-,N/A,,Clear,0,2013-10-02 13:15:00
8:35 AM,42.3,41.4,97,30.09,10.0,Calm,Calm,-,N/A,,Clear,0,2013-10-02 13:35:00
8:55 AM,46.6,43.5,89,30.09,10.0,Calm,Calm,-,N/A,,Clear,0,2013-10-02 13:55:00
9:15 AM,49.8,43.3,78,30.09,10.0,Calm,Calm,-,N/A,,Clear,0,2013-10-02 14:15:00
9:35 AM,52.0,43.0,71,30.09,10.0,Calm,Calm,-,N/A,,Clear,0,2013-10-02 14:35:00
9:55 AM,55.6,42.8,62,30.09,10.0,SE,3.5,-,N/A,,Clear,130,2013-10-02 14:55:00
10:15 AM,59.2,44.1,57,30.09,10.0,SE,3.5,-,N/A,,Clear,130,2013-10-02 15:15:00
10:35 AM,60.3,41.7,50,30.09,10.0,Calm,Calm,-,N/A,,Clear,0,2013-10-02 15:35:00
10:55 AM,61.2,41.9,49,30.09,10.0,Calm,Calm,-,N/A,,Clear,0,2013-10-02 15:55:00
11:15 AM,63.3,42.3,46,30.09,10.0,SE,5.8,-,N/A,,Clear,130,2013-10-02 16:15:00
11:35 AM,67.3,38.1,34,30.08,10.0,SSE,8.1,-,N/A,,Clear,150,2013-10-02 16:35:00
11:55 AM,69.3,37.2,31,30.07,10.0,SSE,10.4,-,N/A,,Clear,150,2013-10-02 16:55:00
12:15 PM,68.4,35.6,30,30.07,10.0,SSE,10.4,-,N/A,,Clear,150,2013-10-02 17:15:00
12:35 PM,70.2,37.2,30,30.07,10.0,SSE,8.1,-,N/A,,Clear,150,2013-10-02 17:35:00
12:55 PM,70.5,36.0,28,30.06,10.0,SSE,9.2,-,N/A,,Clear,150,2013-10-02 17:55:00
1:15 PM,71.6,32.9,24,30.05,10.0,SSE,6.9,-,N/A,,Clear,160,2013-10-02 18:15:00
1:35 PM,71.6,35.1,26,30.05,10.0,SE,6.9,-,N/A,,Clear,140,2013-10-02 18:35:00
1:55 PM,72.3,32.7,23,30.04,10.0,SE,5.8,-,N/A,,Clear,140,2013-10-02 18:55:00
2:15 PM,72.7,33.4,24,30.03,10.0,SSE,10.4,18.4,N/A,,Clear,160,2013-10-02 19:15:00
2:35 PM,73.2,32.4,22,30.02,10.0,ESE,9.2,-,N/A,,Clear,110,2013-10-02 19:35:00
2:55 PM,73.4,35.1,25,30.01,10.0,ESE,10.4,-,N/A,,Clear,120,2013-10-02 19:55:00
3:15 PM,73.4,32.4,22,29.99,10.0,ESE,11.5,-,N/A,,Clear,120,2013-10-02 20:15:00
3:35 PM,73.4,33.4,23,29.98,10.0,East,11.5,-,N/A,,Clear,100,2013-10-02 20:35:00
3:55 PM,72.9,32.9,23,29.98,10.0,East,12.7,-,N/A,,Clear,100,2013-10-02 20:55:00
4:15 PM,71.8,33.6,25,29.97,10.0,ESE,9.2,-,N/A,,Mostly Cloudy,110,2013-10-02 21:15:00
4:35 PM,71.1,34.7,26,29.97,10.0,SE,6.9,-,N/A,,Mostly Cloudy,130,2013-10-02 21:35:00
4:55 PM,71.6,33.8,25,29.96,10.0,ESE,9.2,-,N/A,,Mostly Cloudy,120,2013-10-02 21:55:00
5:15 PM,70.7,34.3,26,29.95,10.0,ESE,8.1,-,N/A,,Mostly Cloudy,120,2013-10-02 22:15:00
5:35 PM,70.2,35.2,28,29.95,10.0,SE,9.2,-,N/A,,Overcast,130,2013-10-02 22:35:00
5:55 PM,70.0,36.1,29,29.94,10.0,SE,8.1,-,N/A,,Overcast,130,2013-10-02 22:55:00
6:15 PM,68.9,36.5,30,29.93,10.0,SE,9.2,-,N/A,,Mostly Cloudy,130,2013-10-02 23:15:00
6:35 PM,68.2,34.9,29,29.93,10.0,SE,9.2,-,N/A,,Mostly Cloudy,130,2013-10-02 23:35:00
6:55 PM,67.3,35.8,31,29.93,10.0,SE,10.4,-,N/A,,Overcast,140,2013-10-02 23:55:00
7:15 PM,67.1,36.5,32,29.92,10.0,SE,9.2,-,N/A,,Overcast,140,2013-10-03 00:15:00
7:35 PM,66.4,38.3,36,29.98,10.0,NW,6.9,-,N/A,,Overcast,310,2013-10-03 00:35:00
7:55 PM,63.1,44.4,50,29.99,7.0,NNW,11.5,-,0.01,Rain,Light Rain,340,2013-10-03 00:55:00
8:15 PM,59.0,48.2,67,29.99,10.0,North,9.2,-,N/A,Rain,Light Rain,360,2013-10-03 01:15:00
8:35 PM,56.3,50.4,80,29.98,10.0,NNE,8.1,-,0.03,Rain,Light Rain,30,2013-10-03 01:35:00
8:55 PM,56.3,49.5,78,29.97,10.0,NE,10.4,-,0.03,Rain,Light Rain,50,2013-10-03 01:55:00
9:15 PM,55.9,49.8,80,29.97,10.0,NE,6.9,-,N/A,Rain,Rain,50,2013-10-03 02:15:00
9:35 PM,55.0,50.5,85,29.98,5.0,Calm,Calm,-,0.06,Rain-Thunderstorm,Rain,0,2013-10-03 02:35:00
9:55 PM,54.5,51.4,89,29.98,7.0,Calm,Calm,-,0.09,Rain-Thunderstorm,Rain,0,2013-10-03 02:55:00
10:15 PM,54.0,52.0,93,29.97,4.0,East,3.5,-,0.07,Rain,Heavy Rain,80,2013-10-03 03:15:00
10:35 PM,53.4,51.8,94,30.02,2.0,NNW,6.9,-,0.22,Rain,Heavy Rain,330,2013-10-03 03:35:00
10:55 PM,53.2,51.8,95,30.01,5.0,NNE,10.4,-,0.29,Rain-Thunderstorm,Heavy Thunderstorms and Rain,30,2013-10-03 03:55:00
11:15 PM,53.1,51.8,95,30.01,3.0,North,8.1,-,0.12,Rain-Thunderstorm,Heavy Thunderstorms and Rain,10,2013-10-03 04:15:00
11:35 PM,52.9,51.4,95,29.99,3.0,NE,6.9,-,0.39,Rain-Thunderstorm,Heavy Thunderstorms and Rain,40,2013-10-03 04:35:00
11:55 PM,52.9,51.4,95,29.95,7.0,East,15.0,-,0.51,Rain-Thunderstorm,Light Thunderstorms and Rain,100,2013-10-03 04:55:00